Year,Month,Day,Hour,Minute,Value (Times are PST for temperature in C)
2012,01,27,00,00,0.40
2012,01,27,00,01,0.30
2012,01,27,00,02,0.30
2012,01,27,00,03,0.30
2012,01,27,00,04,0.20
2012,01,27,00,05,0.20
2012,01,27,00,06,0.20
2012,01,27,00,07,0.10
2012,01,27,00,08,0.10
2012,01,27,00,09,0.00
2012,01,27,00,10,-0.10
2012,01,27,00,11,-0.10
2012,01,27,00,12,-0.10
2012,01,27,00,13,-0.20
2012,01,27,00,14,-0.20
2012,01,27,00,15,-0.10
2012,01,27,00,16,-0.10
2012,01,27,00,17,-0.10
2012,01,27,00,18,-0.10
2012,01,27,00,19,0.00
2012,01,27,00,20,0.00
2012,01,27,00,21,0.00
2012,01,27,00,22,0.00
2012,01,27,00,23,0.00
2012,01,27,00,24,0.00
2012,01,27,00,25,-0.10
2012,01,27,00,26,-0.10
2012,01,27,00,27,-0.10
2012,01,27,00,28,0.00
2012,01,27,00,29,0.10
2012,01,27,00,30,0.20
2012,01,27,00,31,0.20
2012,01,27,00,32,0.30
2012,01,27,00,33,0.30
2012,01,27,00,34,0.40
2012,01,27,00,35,0.40
2012,01,27,00,36,0.40
2012,01,27,00,37,0.40
2012,01,27,00,38,0.40
2012,01,27,00,39,0.50
2012,01,27,00,40,0.50
2012,01,27,00,41,0.60
2012,01,27,00,42,0.60
2012,01,27,00,43,0.70
2012,01,27,00,44,0.70
2012,01,27,00,45,0.70
2012,01,27,00,46,0.70
2012,01,27,00,47,0.60
2012,01,27,00,48,0.50
2012,01,27,00,49,0.40
2012,01,27,00,50,0.30
2012,01,27,00,51,0.20
2012,01,27,00,52,0.10
2012,01,27,00,53,0.00
2012,01,27,00,54,0.00
2012,01,27,00,55,-0.10
2012,01,27,00,56,-0.20
2012,01,27,00,57,-0.30
2012,01,27,00,58,-0.30
2012,01,27,00,59,-0.30
2012,01,27,01,00,-0.40
2012,01,27,01,01,-0.40
2012,01,27,01,02,-0.40
2012,01,27,01,03,-0.40
2012,01,27,01,04,-0.40
2012,01,27,01,05,-0.40
2012,01,27,01,06,-0.30
2012,01,27,01,07,-0.10
2012,01,27,01,08,0.20
2012,01,27,01,09,0.30
2012,01,27,01,10,0.50
2012,01,27,01,11,0.60
2012,01,27,01,12,0.70
2012,01,27,01,13,0.90
2012,01,27,01,14,1.00
2012,01,27,01,15,1.10
2012,01,27,01,16,1.30
2012,01,27,01,17,1.30
2012,01,27,01,18,1.50
2012,01,27,01,19,1.60
2012,01,27,01,20,1.80
2012,01,27,01,21,1.90
2012,01,27,01,22,2.00
2012,01,27,01,23,2.00
2012,01,27,01,24,2.10
2012,01,27,01,25,2.10
2012,01,27,01,26,2.20
2012,01,27,01,27,2.20
2012,01,27,01,28,2.20
2012,01,27,01,29,2.20
2012,01,27,01,30,2.20
2012,01,27,01,31,2.20
2012,01,27,01,32,2.10
2012,01,27,01,33,2.10
2012,01,27,01,34,2.00
2012,01,27,01,35,1.90
2012,01,27,01,36,1.80
2012,01,27,01,37,1.80
2012,01,27,01,38,1.70
2012,01,27,01,39,1.50
2012,01,27,01,40,1.40
2012,01,27,01,41,1.30
2012,01,27,01,42,1.30
2012,01,27,01,43,1.30
2012,01,27,01,44,1.20
2012,01,27,01,45,1.20
2012,01,27,01,46,1.10
2012,01,27,01,47,1.10
2012,01,27,01,48,1.00
2012,01,27,01,49,0.90
2012,01,27,01,50,0.90
2012,01,27,01,51,0.80
2012,01,27,01,52,0.70
2012,01,27,01,53,0.70
2012,01,27,01,54,0.60
2012,01,27,01,55,0.60
2012,01,27,01,56,0.60
2012,01,27,01,57,0.50
2012,01,27,01,58,0.50
2012,01,27,01,59,0.50
2012,01,27,02,00,0.50
2012,01,27,02,01,0.50
2012,01,27,02,02,0.60
2012,01,27,02,03,0.60
2012,01,27,02,04,0.70
2012,01,27,02,05,0.70
2012,01,27,02,06,0.80
2012,01,27,02,07,0.90
2012,01,27,02,08,1.10
2012,01,27,02,09,1.20
2012,01,27,02,10,1.30
2012,01,27,02,11,1.30
2012,01,27,02,12,1.30
2012,01,27,02,13,1.30
2012,01,27,02,14,1.40
2012,01,27,02,15,1.40
2012,01,27,02,16,1.50
2012,01,27,02,17,1.50
2012,01,27,02,18,1.40
2012,01,27,02,19,1.40
2012,01,27,02,20,1.40
2012,01,27,02,21,1.40
2012,01,27,02,22,1.30
2012,01,27,02,23,1.30
2012,01,27,02,24,1.30
2012,01,27,02,25,1.30
2012,01,27,02,26,1.20
2012,01,27,02,27,1.10
2012,01,27,02,28,1.00
2012,01,27,02,29,0.90
2012,01,27,02,30,0.80
2012,01,27,02,31,0.70
2012,01,27,02,32,0.60
2012,01,27,02,33,0.50
2012,01,27,02,34,0.40
2012,01,27,02,35,0.30
2012,01,27,02,36,0.20
2012,01,27,02,37,0.20
2012,01,27,02,38,0.10
2012,01,27,02,39,0.10
2012,01,27,02,40,0.00
2012,01,27,02,41,0.10
2012,01,27,02,42,0.10
2012,01,27,02,43,0.10
2012,01,27,02,44,0.10
2012,01,27,02,45,0.10
2012,01,27,02,46,0.10
2012,01,27,02,47,0.10
2012,01,27,02,48,0.10
2012,01,27,02,49,0.10
2012,01,27,02,50,0.00
2012,01,27,02,51,0.00
2012,01,27,02,52,-0.10
2012,01,27,02,53,-0.10
2012,01,27,02,54,-0.10
2012,01,27,02,55,-0.10
2012,01,27,02,56,-0.10
2012,01,27,02,57,-0.10
2012,01,27,02,58,-0.20
2012,01,27,02,59,-0.20
2012,01,27,03,00,-0.20
2012,01,27,03,01,-0.20
2012,01,27,03,02,-0.30
2012,01,27,03,03,-0.30
2012,01,27,03,04,-0.30
2012,01,27,03,05,-0.30
2012,01,27,03,06,-0.40
2012,01,27,03,07,-0.40
2012,01,27,03,08,-0.40
2012,01,27,03,09,-0.50
2012,01,27,03,10,-0.50
2012,01,27,03,11,-0.60
2012,01,27,03,12,-0.60
2012,01,27,03,13,-0.60
2012,01,27,03,14,-0.70
2012,01,27,03,15,-0.70
2012,01,27,03,16,-0.70
2012,01,27,03,17,-0.70
2012,01,27,03,18,-0.70
2012,01,27,03,19,-0.80
2012,01,27,03,20,-0.80
2012,01,27,03,21,-0.80
2012,01,27,03,22,-0.80
2012,01,27,03,23,-0.80
2012,01,27,03,24,-0.80
2012,01,27,03,25,-0.90
2012,01,27,03,26,-0.90
2012,01,27,03,27,-0.90
2012,01,27,03,28,-0.90
2012,01,27,03,29,-1.00
2012,01,27,03,30,-1.00
2012,01,27,03,31,-1.00
2012,01,27,03,32,-1.00
2012,01,27,03,33,-1.00
2012,01,27,03,34,-1.10
2012,01,27,03,35,-1.10
2012,01,27,03,36,-1.10
2012,01,27,03,37,-1.10
2012,01,27,03,38,-1.10
2012,01,27,03,39,-1.10
2012,01,27,03,40,-1.10
2012,01,27,03,41,-1.00
2012,01,27,03,42,-1.00
2012,01,27,03,43,-1.00
2012,01,27,03,44,-1.00
2012,01,27,03,45,-1.00
2012,01,27,03,46,-1.00
2012,01,27,03,47,-1.00
2012,01,27,03,48,-1.00
2012,01,27,03,49,-1.00
2012,01,27,03,50,-1.00
2012,01,27,03,51,-1.10
2012,01,27,03,52,-1.10
2012,01,27,03,53,-1.10
2012,01,27,03,54,-1.20
2012,01,27,03,55,-1.20
2012,01,27,03,56,-1.20
2012,01,27,03,57,-1.30
2012,01,27,03,58,-1.30
2012,01,27,03,59,-1.30
2012,01,27,04,00,-1.40
2012,01,27,04,01,-1.40
2012,01,27,04,02,-1.40
2012,01,27,04,03,-1.50
2012,01,27,04,04,-1.50
2012,01,27,04,07,-1.40
2012,01,27,04,08,-1.40
2012,01,27,04,10,-1.20
2012,01,27,04,11,-1.20
2012,01,27,04,12,-1.10
2012,01,27,04,13,-0.90
2012,01,27,04,14,-0.90
2012,01,27,04,15,-0.80
2012,01,27,04,16,-0.70
2012,01,27,04,17,-0.70
2012,01,27,04,18,-0.70
2012,01,27,04,19,-0.70
2012,01,27,04,20,-0.70
2012,01,27,04,21,-0.70
2012,01,27,04,22,-0.70
2012,01,27,04,23,-0.70
2012,01,27,04,24,-0.80
2012,01,27,04,25,-0.80
2012,01,27,04,26,-0.80
2012,01,27,04,27,-0.80
2012,01,27,04,28,-0.90
2012,01,27,04,29,-0.90
2012,01,27,04,30,-0.90
2012,01,27,04,31,-1.00
2012,01,27,04,32,-1.10
2012,01,27,04,33,-1.10
2012,01,27,04,34,-1.10
2012,01,27,04,35,-1.20
2012,01,27,04,36,-1.20
2012,01,27,04,37,-1.20
2012,01,27,04,38,-1.30
2012,01,27,04,39,-1.30
2012,01,27,04,40,-1.30
2012,01,27,04,41,-1.40
2012,01,27,04,42,-1.40
2012,01,27,04,43,-1.30
2012,01,27,04,44,-1.30
2012,01,27,04,45,-1.30
2012,01,27,04,46,-1.30
2012,01,27,04,47,-1.30
2012,01,27,04,48,-1.30
2012,01,27,04,49,-1.30
2012,01,27,04,50,-1.40
2012,01,27,04,51,-1.40
2012,01,27,04,52,-1.40
2012,01,27,04,53,-1.50
2012,01,27,04,54,-1.50
2012,01,27,04,55,-1.50
2012,01,27,04,56,-1.50
2012,01,27,04,57,-1.50
2012,01,27,04,58,-1.50
2012,01,27,04,59,-1.60
2012,01,27,05,00,-1.60
2012,01,27,05,01,-1.60
2012,01,27,05,02,-1.60
2012,01,27,05,03,-1.60
2012,01,27,05,04,-1.60
2012,01,27,05,05,-1.70
2012,01,27,05,06,-1.70
2012,01,27,05,07,-1.70
2012,01,27,05,08,-1.70
2012,01,27,05,09,-1.70
2012,01,27,05,10,-1.70
2012,01,27,05,11,-1.70
2012,01,27,05,12,-1.70
2012,01,27,05,13,-1.70
2012,01,27,05,14,-1.70
2012,01,27,05,15,-1.70
2012,01,27,05,16,-1.70
2012,01,27,05,17,-1.70
2012,01,27,05,18,-1.70
2012,01,27,05,19,-1.70
2012,01,27,05,20,-1.60
2012,01,27,05,21,-1.60
2012,01,27,05,22,-1.60
2012,01,27,05,23,-1.50
2012,01,27,05,24,-1.50
2012,01,27,05,25,-1.50
2012,01,27,05,26,-1.40
2012,01,27,05,27,-1.40
2012,01,27,05,28,-1.30
2012,01,27,05,29,-1.30
2012,01,27,05,30,-1.20
2012,01,27,05,31,-1.20
2012,01,27,05,32,-1.30
2012,01,27,05,33,-1.30
2012,01,27,05,34,-1.30
2012,01,27,05,35,-1.30
2012,01,27,05,36,-1.30
2012,01,27,05,37,-1.30
2012,01,27,05,38,-1.30
2012,01,27,05,39,-1.30
2012,01,27,05,40,-1.40
2012,01,27,05,41,-1.40
2012,01,27,05,42,-1.40
2012,01,27,05,43,-1.40
2012,01,27,05,44,-1.40
2012,01,27,05,45,-1.40
2012,01,27,05,46,-1.40
2012,01,27,05,47,-1.40
2012,01,27,05,48,-1.40
2012,01,27,05,49,-1.40
2012,01,27,05,50,-1.40
2012,01,27,05,51,-1.40
2012,01,27,05,52,-1.40
2012,01,27,05,53,-1.40
2012,01,27,05,54,-1.40
2012,01,27,05,55,-1.40
2012,01,27,05,56,-1.40
2012,01,27,05,57,-1.30
2012,01,27,05,58,-1.30
2012,01,27,05,59,-1.40
2012,01,27,06,00,-1.40
2012,01,27,06,01,-1.40
2012,01,27,06,02,-1.40
2012,01,27,06,03,-1.40
2012,01,27,06,04,-1.40
2012,01,27,06,05,-1.40
2012,01,27,06,06,-1.50
2012,01,27,06,07,-1.50
2012,01,27,06,08,-1.50
2012,01,27,06,09,-1.60
2012,01,27,06,10,-1.60
2012,01,27,06,11,-1.60
2012,01,27,06,12,-1.70
2012,01,27,06,13,-1.70
2012,01,27,06,14,-1.70
2012,01,27,06,15,-1.70
2012,01,27,06,16,-1.70
2012,01,27,06,17,-1.70
2012,01,27,06,18,-1.70
2012,01,27,06,19,-1.60
2012,01,27,06,20,-1.60
2012,01,27,06,21,-1.60
2012,01,27,06,22,-1.60
2012,01,27,06,23,-1.70
2012,01,27,06,24,-1.70
2012,01,27,06,25,-1.70
2012,01,27,06,26,-1.70
2012,01,27,06,27,-1.70
2012,01,27,06,28,-1.70
2012,01,27,06,29,-1.60
2012,01,27,06,30,-1.60
2012,01,27,06,31,-1.60
2012,01,27,06,32,-1.60
2012,01,27,06,33,-1.60
2012,01,27,06,34,-1.60
2012,01,27,06,35,-1.60
2012,01,27,06,36,-1.60
2012,01,27,06,37,-1.60
2012,01,27,06,38,-1.60
2012,01,27,06,39,-1.50
2012,01,27,06,40,-1.50
2012,01,27,06,41,-1.40
2012,01,27,06,42,-1.40
2012,01,27,06,43,-1.40
2012,01,27,06,44,-1.30
2012,01,27,06,45,-1.30
2012,01,27,06,46,-1.30
2012,01,27,06,47,-1.20
2012,01,27,06,48,-1.20
2012,01,27,06,49,-1.20
2012,01,27,06,50,-1.20
2012,01,27,06,51,-1.20
2012,01,27,06,52,-1.20
2012,01,27,06,53,-1.20
2012,01,27,06,54,-1.20
2012,01,27,06,55,-1.10
2012,01,27,06,56,-1.10
2012,01,27,06,57,-1.10
2012,01,27,06,58,-1.10
2012,01,27,06,59,-1.10
2012,01,27,07,00,-1.10
2012,01,27,07,01,-1.20
2012,01,27,07,02,-1.20
2012,01,27,07,03,-1.20
2012,01,27,07,04,-1.20
2012,01,27,07,05,-1.20
2012,01,27,07,06,-1.30
2012,01,27,07,07,-1.30
2012,01,27,07,08,-1.30
2012,01,27,07,09,-1.30
2012,01,27,07,10,-1.40
2012,01,27,07,11,-1.40
2012,01,27,07,12,-1.40
2012,01,27,07,13,-1.40
2012,01,27,07,14,-1.40
2012,01,27,07,15,-1.40
2012,01,27,07,16,-1.40
2012,01,27,07,17,-1.40
2012,01,27,07,18,-1.40
2012,01,27,07,19,-1.30
2012,01,27,07,20,-1.30
2012,01,27,07,21,-1.40
2012,01,27,07,22,-1.40
2012,01,27,07,23,-1.40
2012,01,27,07,24,-1.40
2012,01,27,07,25,-1.40
2012,01,27,07,26,-1.40
2012,01,27,07,27,-1.40
2012,01,27,07,28,-1.40
2012,01,27,07,29,-1.40
2012,01,27,07,30,-1.40
2012,01,27,07,31,-1.40
2012,01,27,07,32,-1.40
2012,01,27,07,33,-1.40
2012,01,27,07,34,-1.40
2012,01,27,07,35,-1.40
2012,01,27,07,36,-1.30
2012,01,27,07,37,-1.30
2012,01,27,07,38,-1.30
2012,01,27,07,39,-1.30
2012,01,27,07,40,-1.30
2012,01,27,07,41,-1.30
2012,01,27,07,42,-1.30
2012,01,27,07,43,-1.20
2012,01,27,07,44,-1.20
2012,01,27,07,45,-1.20
2012,01,27,07,46,-1.20
2012,01,27,07,47,-1.20
2012,01,27,07,48,-1.20
2012,01,27,07,49,-1.20
2012,01,27,07,50,-1.20
2012,01,27,07,51,-1.20
2012,01,27,07,52,-1.10
2012,01,27,07,53,-0.90
2012,01,27,07,54,-0.70
2012,01,27,07,55,-0.50
2012,01,27,07,56,-0.30
2012,01,27,07,57,-0.20
2012,01,27,07,58,0.00
2012,01,27,07,59,0.20
2012,01,27,08,00,0.30
2012,01,27,08,01,0.60
2012,01,27,08,02,0.80
2012,01,27,08,03,1.00
2012,01,27,08,04,1.30
2012,01,27,08,05,1.40
2012,01,27,08,06,1.50
2012,01,27,08,07,1.70
2012,01,27,08,08,1.80
2012,01,27,08,09,1.90
2012,01,27,08,10,2.00
2012,01,27,08,11,2.10
2012,01,27,08,12,2.20
2012,01,27,08,13,2.30
2012,01,27,08,14,2.40
2012,01,27,08,15,2.50
2012,01,27,08,16,2.60
2012,01,27,08,17,2.70
2012,01,27,08,18,2.80
2012,01,27,08,19,2.90
2012,01,27,08,20,2.90
2012,01,27,08,21,3.00
2012,01,27,08,22,3.00
2012,01,27,08,23,3.10
2012,01,27,08,24,3.10
2012,01,27,08,25,3.20
2012,01,27,08,26,3.30
2012,01,27,08,27,3.30
2012,01,27,08,28,3.40
2012,01,27,08,29,3.40
2012,01,27,08,30,3.50
2012,01,27,08,31,3.60
2012,01,27,08,32,3.60
2012,01,27,08,33,3.70
2012,01,27,08,34,3.70
2012,01,27,08,35,3.80
2012,01,27,08,36,3.80
2012,01,27,08,37,3.90
2012,01,27,08,38,3.90
2012,01,27,08,39,4.00
2012,01,27,08,40,4.00
2012,01,27,08,41,4.10
2012,01,27,08,42,4.20
2012,01,27,08,43,4.20
2012,01,27,08,44,4.30
2012,01,27,08,45,4.40
2012,01,27,08,46,4.40
2012,01,27,08,47,4.50
2012,01,27,08,48,4.50
2012,01,27,08,49,4.60
2012,01,27,08,50,4.60
2012,01,27,08,51,4.60
2012,01,27,08,52,4.60
2012,01,27,08,53,4.60
2012,01,27,08,54,4.60
2012,01,27,08,55,4.60
2012,01,27,08,56,4.60
2012,01,27,08,57,4.70
2012,01,27,08,58,4.70
2012,01,27,08,59,4.80
2012,01,27,09,00,4.80
2012,01,27,09,01,4.90
2012,01,27,09,02,5.00
2012,01,27,09,03,5.10
2012,01,27,09,04,5.20
2012,01,27,09,05,5.30
2012,01,27,09,06,5.30
2012,01,27,09,07,5.40
2012,01,27,09,08,5.40
2012,01,27,09,09,5.50
2012,01,27,09,10,5.50
2012,01,27,09,11,5.60
2012,01,27,09,12,5.60
2012,01,27,09,13,5.70
2012,01,27,09,14,5.70
2012,01,27,09,15,5.70
2012,01,27,09,16,5.80
2012,01,27,09,17,5.80
2012,01,27,09,18,5.80
2012,01,27,09,19,5.80
2012,01,27,09,20,5.80
2012,01,27,09,21,5.80
2012,01,27,09,22,5.80
2012,01,27,09,23,5.70
2012,01,27,09,24,5.70
2012,01,27,09,25,5.70
2012,01,27,09,26,5.60
2012,01,27,09,27,5.60
2012,01,27,09,28,5.60
2012,01,27,09,29,5.50
2012,01,27,09,30,5.50
2012,01,27,09,31,5.50
2012,01,27,09,32,5.40
2012,01,27,09,33,5.40
2012,01,27,09,34,5.40
2012,01,27,09,35,5.40
2012,01,27,09,36,5.30
2012,01,27,09,37,5.30
2012,01,27,09,38,5.30
2012,01,27,09,39,5.30
2012,01,27,09,40,5.20
2012,01,27,09,41,5.20
2012,01,27,09,42,5.20
2012,01,27,09,43,5.20
2012,01,27,09,44,5.10
2012,01,27,09,45,5.10
2012,01,27,09,46,5.10
2012,01,27,09,47,5.10
2012,01,27,09,48,5.10
2012,01,27,09,49,5.10
2012,01,27,09,50,5.10
2012,01,27,09,51,5.10
2012,01,27,09,52,5.10
2012,01,27,09,53,5.10
2012,01,27,09,54,5.10
2012,01,27,09,55,5.00
2012,01,27,09,56,5.00
2012,01,27,09,57,5.00
2012,01,27,09,58,5.00
2012,01,27,09,59,5.00
2012,01,27,10,00,5.00
2012,01,27,10,01,5.00
2012,01,27,10,02,5.00
2012,01,27,10,03,4.90
2012,01,27,10,04,4.90
2012,01,27,10,05,4.90
2012,01,27,10,06,4.90
2012,01,27,10,07,4.90
2012,01,27,10,08,4.90
2012,01,27,10,09,4.90
2012,01,27,10,10,4.90
2012,01,27,10,11,5.00
2012,01,27,10,12,5.00
2012,01,27,10,13,5.10
2012,01,27,10,14,5.10
2012,01,27,10,15,5.20
2012,01,27,10,16,5.30
2012,01,27,10,17,5.40
2012,01,27,10,18,5.50
2012,01,27,10,19,5.60
2012,01,27,10,20,5.70
2012,01,27,10,21,5.70
2012,01,27,10,22,5.80
2012,01,27,10,23,5.90
2012,01,27,10,24,6.00
2012,01,27,10,25,6.10
2012,01,27,10,26,6.10
2012,01,27,10,27,6.20
2012,01,27,10,28,6.20
2012,01,27,10,29,6.20
2012,01,27,10,30,6.20
2012,01,27,10,31,6.30
2012,01,27,10,32,6.30
2012,01,27,10,33,6.40
2012,01,27,10,34,6.40
2012,01,27,10,35,6.50
2012,01,27,10,36,6.60
2012,01,27,10,37,6.60
2012,01,27,10,38,6.70
2012,01,27,10,39,6.70
2012,01,27,10,40,6.70
2012,01,27,10,41,6.70
2012,01,27,10,42,6.70
2012,01,27,10,43,6.70
2012,01,27,10,44,6.70
2012,01,27,10,45,6.60
2012,01,27,10,46,6.60
2012,01,27,10,47,6.60
2012,01,27,10,48,6.60
2012,01,27,10,49,6.60
2012,01,27,10,50,6.60
2012,01,27,10,51,6.60
2012,01,27,10,52,6.60
2012,01,27,10,53,6.60
2012,01,27,10,54,6.60
2012,01,27,10,55,6.70
2012,01,27,10,56,6.70
2012,01,27,10,57,6.70
2012,01,27,10,58,6.70
2012,01,27,10,59,6.70
2012,01,27,11,00,6.70
2012,01,27,11,01,6.80
2012,01,27,11,02,6.80
2012,01,27,11,03,6.80
2012,01,27,11,04,6.80
2012,01,27,11,05,6.80
2012,01,27,11,06,6.80
2012,01,27,11,07,6.90
2012,01,27,11,08,6.90
2012,01,27,11,09,6.90
2012,01,27,11,10,7.00
2012,01,27,11,11,7.10
2012,01,27,11,12,7.10
2012,01,27,11,13,7.00
2012,01,27,11,14,6.90
2012,01,27,11,15,6.90
2012,01,27,11,16,6.80
2012,01,27,11,17,6.80
2012,01,27,11,18,6.70
2012,01,27,11,19,6.70
2012,01,27,11,20,6.70
2012,01,27,11,21,6.70
2012,01,27,11,22,6.70
2012,01,27,11,23,6.80
2012,01,27,11,24,6.80
2012,01,27,11,25,6.90
2012,01,27,11,26,6.90
2012,01,27,11,27,6.90
2012,01,27,11,28,6.90
2012,01,27,11,29,6.90
2012,01,27,11,30,7.00
2012,01,27,11,31,7.00
2012,01,27,11,32,7.00
2012,01,27,11,33,7.00
2012,01,27,11,34,7.10
2012,01,27,11,35,7.10
2012,01,27,11,36,7.10
2012,01,27,11,37,7.10
2012,01,27,11,38,7.00
2012,01,27,11,39,7.00
2012,01,27,11,40,7.00
2012,01,27,11,41,6.90
2012,01,27,11,42,6.90
2012,01,27,11,43,6.90
2012,01,27,11,44,6.90
2012,01,27,11,45,6.80
2012,01,27,11,46,6.80
2012,01,27,11,47,6.80
2012,01,27,11,48,6.90
2012,01,27,11,49,6.90
2012,01,27,11,50,6.90
2012,01,27,11,51,7.00
2012,01,27,11,52,7.00
2012,01,27,11,53,7.00
2012,01,27,11,54,7.10
2012,01,27,11,55,7.10
2012,01,27,11,56,7.20
2012,01,27,11,57,7.20
2012,01,27,11,58,7.20
2012,01,27,11,59,7.20
2012,01,27,12,00,7.20
2012,01,27,12,01,7.30
2012,01,27,12,02,7.30
2012,01,27,12,03,7.30
2012,01,27,12,04,7.20
2012,01,27,12,05,7.20
2012,01,27,12,06,7.20
2012,01,27,12,07,7.20
2012,01,27,12,08,7.10
2012,01,27,12,09,7.10
2012,01,27,12,10,7.10
2012,01,27,12,11,7.10
2012,01,27,12,12,7.00
2012,01,27,12,13,6.90
2012,01,27,12,14,6.80
2012,01,27,12,15,6.80
2012,01,27,12,16,6.70
2012,01,27,12,17,6.70
2012,01,27,12,18,6.70
2012,01,27,12,19,6.70
2012,01,27,12,20,6.80
2012,01,27,12,21,6.80
2012,01,27,12,22,6.80
2012,01,27,12,23,6.80
2012,01,27,12,24,6.80
2012,01,27,12,25,6.80
2012,01,27,12,26,6.70
2012,01,27,12,27,6.70
2012,01,27,12,28,6.70
2012,01,27,12,29,6.70
2012,01,27,12,30,6.60
2012,01,27,12,31,6.60
2012,01,27,12,32,6.60
2012,01,27,12,33,6.60
2012,01,27,12,34,6.60
2012,01,27,12,35,6.60
2012,01,27,12,36,6.60
2012,01,27,12,37,6.60
2012,01,27,12,38,6.60
2012,01,27,12,39,6.60
2012,01,27,12,40,6.70
2012,01,27,12,41,6.70
2012,01,27,12,42,6.80
2012,01,27,12,43,6.80
2012,01,27,12,44,6.80
2012,01,27,12,45,6.80
2012,01,27,12,46,6.90
2012,01,27,12,47,6.90
2012,01,27,12,48,6.90
2012,01,27,12,49,6.90
2012,01,27,12,50,7.00
2012,01,27,12,51,7.00
2012,01,27,12,52,7.10
2012,01,27,12,53,7.20
2012,01,27,12,54,7.20
2012,01,27,12,55,7.20
2012,01,27,12,56,7.30
2012,01,27,12,57,7.30
2012,01,27,12,58,7.30
2012,01,27,12,59,7.30
2012,01,27,13,00,7.40
2012,01,27,13,01,7.40
2012,01,27,13,02,7.50
2012,01,27,13,03,7.50
2012,01,27,13,04,7.60
2012,01,27,13,05,7.60
2012,01,27,13,06,7.70
2012,01,27,13,07,7.70
2012,01,27,13,08,7.70
2012,01,27,13,09,7.70
2012,01,27,13,10,7.70
2012,01,27,13,11,7.70
2012,01,27,13,12,7.80
2012,01,27,13,13,7.80
2012,01,27,13,14,7.80
2012,01,27,13,15,7.80
2012,01,27,13,16,7.80
2012,01,27,13,17,7.90
2012,01,27,13,18,7.90
2012,01,27,13,19,8.00
2012,01,27,13,20,8.10
2012,01,27,13,21,8.10
2012,01,27,13,22,8.10
2012,01,27,13,23,8.10
2012,01,27,13,24,8.00
2012,01,27,13,25,8.00
2012,01,27,13,26,8.00
2012,01,27,13,27,8.00
2012,01,27,13,28,7.90
2012,01,27,13,29,7.90
2012,01,27,13,30,7.90
2012,01,27,13,31,7.90
2012,01,27,13,32,7.90
2012,01,27,13,33,8.00
2012,01,27,13,34,8.00
2012,01,27,13,35,8.00
2012,01,27,13,36,8.00
2012,01,27,13,37,7.90
2012,01,27,13,38,7.80
2012,01,27,13,39,7.80
2012,01,27,13,40,7.70
2012,01,27,13,41,7.70
2012,01,27,13,42,7.70
2012,01,27,13,43,7.70
2012,01,27,13,44,7.70
2012,01,27,13,45,7.70
2012,01,27,13,46,7.70
2012,01,27,13,47,7.70
2012,01,27,13,48,7.70
2012,01,27,13,49,7.70
2012,01,27,13,50,7.70
2012,01,27,13,51,7.70
2012,01,27,13,52,7.80
2012,01,27,13,53,7.80
2012,01,27,13,54,7.80
2012,01,27,13,55,7.80
2012,01,27,13,56,7.80
2012,01,27,13,57,7.90
2012,01,27,13,58,7.90
2012,01,27,13,59,7.80
2012,01,27,14,00,7.80
2012,01,27,14,01,7.70
2012,01,27,14,02,7.70
2012,01,27,14,03,7.60
2012,01,27,14,04,7.60
2012,01,27,14,05,7.70
2012,01,27,14,06,7.70
2012,01,27,14,07,7.70
2012,01,27,14,08,7.60
2012,01,27,14,09,7.50
2012,01,27,14,10,7.40
2012,01,27,14,11,7.40
2012,01,27,14,12,7.40
2012,01,27,14,13,7.40
2012,01,27,14,14,7.50
2012,01,27,14,15,7.50
2012,01,27,14,16,7.50
2012,01,27,14,17,7.50
2012,01,27,14,18,7.50
2012,01,27,14,19,7.50
2012,01,27,14,20,7.50
2012,01,27,14,21,7.40
2012,01,27,14,22,7.40
2012,01,27,14,23,7.50
2012,01,27,14,24,7.60
2012,01,27,14,25,7.60
2012,01,27,14,26,7.60
2012,01,27,14,27,7.60
2012,01,27,14,28,7.60
2012,01,27,14,29,7.70
2012,01,27,14,30,7.70
2012,01,27,14,31,7.70
2012,01,27,14,32,7.70
2012,01,27,14,33,7.70
2012,01,27,14,34,7.70
2012,01,27,14,35,7.70
2012,01,27,14,36,7.70
2012,01,27,14,37,7.70
2012,01,27,14,38,7.70
2012,01,27,14,39,7.70
2012,01,27,14,40,7.60
2012,01,27,14,41,7.60
2012,01,27,14,42,7.70
2012,01,27,14,43,7.70
2012,01,27,14,44,7.70
2012,01,27,14,45,7.60
2012,01,27,14,46,7.60
2012,01,27,14,47,7.60
2012,01,27,14,48,7.60
2012,01,27,14,49,7.60
2012,01,27,14,50,7.50
2012,01,27,14,51,7.50
2012,01,27,14,52,7.50
2012,01,27,14,53,7.50
2012,01,27,14,54,7.50
2012,01,27,14,55,7.40
2012,01,27,14,56,7.40
2012,01,27,14,57,7.40
2012,01,27,14,58,7.40
2012,01,27,14,59,7.40
2012,01,27,15,00,7.40
2012,01,27,15,01,7.40
2012,01,27,15,02,7.40
2012,01,27,15,03,7.40
2012,01,27,15,04,7.40
2012,01,27,15,05,7.40
2012,01,27,15,06,7.40
2012,01,27,15,07,7.40
2012,01,27,15,08,7.40
2012,01,27,15,09,7.30
2012,01,27,15,10,7.30
2012,01,27,15,11,7.20
2012,01,27,15,12,7.20
2012,01,27,15,13,7.20
2012,01,27,15,14,7.20
2012,01,27,15,15,7.20
2012,01,27,15,16,7.20
2012,01,27,15,17,7.20
2012,01,27,15,18,7.20
2012,01,27,15,19,7.20
2012,01,27,15,20,7.20
2012,01,27,15,21,7.20
2012,01,27,15,22,7.10
2012,01,27,15,23,7.10
2012,01,27,15,24,7.00
2012,01,27,15,25,7.00
2012,01,27,15,26,7.00
2012,01,27,15,27,7.00
2012,01,27,15,28,7.00
2012,01,27,15,29,7.00
2012,01,27,15,30,7.00
2012,01,27,15,31,7.00
2012,01,27,15,32,7.00
2012,01,27,15,33,6.90
2012,01,27,15,34,6.90
2012,01,27,15,35,6.90
2012,01,27,15,36,6.90
2012,01,27,15,37,6.90
2012,01,27,15,38,6.90
2012,01,27,15,39,6.90
2012,01,27,15,40,6.90
2012,01,27,15,41,6.90
2012,01,27,15,42,6.80
2012,01,27,15,43,6.80
2012,01,27,15,44,6.80
2012,01,27,15,45,6.80
2012,01,27,15,46,6.80
2012,01,27,15,47,6.80
2012,01,27,15,48,6.80
2012,01,27,15,49,6.80
2012,01,27,15,50,6.80
2012,01,27,15,51,6.80
2012,01,27,15,52,6.80
2012,01,27,15,53,6.80
2012,01,27,15,54,6.80
2012,01,27,15,55,6.80
2012,01,27,15,56,6.80
2012,01,27,15,57,6.80
2012,01,27,15,58,6.80
2012,01,27,15,59,6.80
2012,01,27,16,00,6.80
2012,01,27,16,01,6.80
2012,01,27,16,02,6.80
2012,01,27,16,03,6.80
2012,01,27,16,04,6.80
2012,01,27,16,05,6.80
2012,01,27,16,06,6.80
2012,01,27,16,07,6.80
2012,01,27,16,08,6.80
2012,01,27,16,09,6.80
2012,01,27,16,10,6.80
2012,01,27,16,11,6.80
2012,01,27,16,12,6.80
2012,01,27,16,13,6.80
2012,01,27,16,14,6.80
2012,01,27,16,15,6.80
2012,01,27,16,16,6.80
2012,01,27,16,17,6.70
2012,01,27,16,18,6.70
2012,01,27,16,19,6.70
2012,01,27,16,20,6.70
2012,01,27,16,21,6.70
2012,01,27,16,22,6.70
2012,01,27,16,23,6.70
2012,01,27,16,24,6.70
2012,01,27,16,25,6.70
2012,01,27,16,26,6.70
2012,01,27,16,27,6.60
2012,01,27,16,28,6.60
2012,01,27,16,29,6.60
2012,01,27,16,30,6.60
2012,01,27,16,31,6.60
2012,01,27,16,32,6.60
2012,01,27,16,33,6.50
2012,01,27,16,34,6.50
2012,01,27,16,35,6.50
2012,01,27,16,36,6.50
2012,01,27,16,37,6.40
2012,01,27,16,38,6.40
2012,01,27,16,39,6.40
2012,01,27,16,40,6.40
2012,01,27,16,41,6.40
2012,01,27,16,42,6.30
2012,01,27,16,43,6.30
2012,01,27,16,44,6.30
2012,01,27,16,45,6.30
2012,01,27,16,46,6.30
2012,01,27,16,47,6.20
2012,01,27,16,48,6.20
2012,01,27,16,49,6.20
2012,01,27,16,50,6.20
2012,01,27,16,51,6.20
2012,01,27,16,52,6.20
2012,01,27,16,53,6.10
2012,01,27,16,54,6.10
2012,01,27,16,55,6.10
2012,01,27,16,56,6.10
2012,01,27,16,57,6.10
2012,01,27,16,58,6.10
2012,01,27,16,59,6.00
2012,01,27,17,00,6.00
2012,01,27,17,01,6.00
2012,01,27,17,02,6.00
2012,01,27,17,03,5.90
2012,01,27,17,04,5.90
2012,01,27,17,05,5.90
2012,01,27,17,06,5.90
2012,01,27,17,07,5.90
2012,01,27,17,08,5.90
2012,01,27,17,09,5.80
2012,01,27,17,10,5.80
2012,01,27,17,11,5.80
2012,01,27,17,12,5.80
2012,01,27,17,13,5.80
2012,01,27,17,14,5.80
2012,01,27,17,15,5.70
2012,01,27,17,16,5.70
2012,01,27,17,17,5.70
2012,01,27,17,18,5.70
2012,01,27,17,19,5.70
2012,01,27,17,20,5.70
2012,01,27,17,21,5.70
2012,01,27,17,22,5.60
2012,01,27,17,23,5.60
2012,01,27,17,24,5.60
2012,01,27,17,25,5.60
2012,01,27,17,26,5.60
2012,01,27,17,27,5.60
2012,01,27,17,28,5.60
2012,01,27,17,29,5.50
2012,01,27,17,30,5.50
2012,01,27,17,31,5.50
2012,01,27,17,32,5.50
2012,01,27,17,33,5.50
2012,01,27,17,34,5.50
2012,01,27,17,35,5.40
2012,01,27,17,36,5.40
2012,01,27,17,37,5.40
2012,01,27,17,38,5.40
2012,01,27,17,39,5.40
2012,01,27,17,40,5.40
2012,01,27,17,41,5.40
2012,01,27,17,42,5.40
2012,01,27,17,43,5.40
2012,01,27,17,44,5.30
2012,01,27,17,45,5.30
2012,01,27,17,46,5.30
2012,01,27,17,47,5.30
2012,01,27,17,48,5.30
2012,01,27,17,49,5.30
2012,01,27,17,50,5.30
2012,01,27,17,51,5.30
2012,01,27,17,52,5.30
2012,01,27,17,53,5.30
2012,01,27,17,54,5.20